Location: Freistadt
(48.5112°N, 14.5013°E)
Time: 07:44:59
(UTC+02:00)

CUBEBUG 2 - Pass Details

Date: 09 April 2023
Orbit: 577 x 686 km, 97.8° (Epoch: 29 May)

Event Time Altitude Azimuth Distance (km) Brightness Sun altitude
Rises 04:56:11 0° 2° (N) 3,049 ? -14.5°
Reaches altitude 10° 04:58:54 10° 347° (NNW) 2,116 ? -14.1°
Maximum altitude 05:02:19 21° 299° (WNW) 1,494 ? -13.6°
Enters shadow 05:04:03 17° 269° (W) 1,660 ? -13.3°
